Cape Byron Observation History
Time Wind Speed Temp Pressure Rel. Hum Rain
10/08:30am SW 8-10 kts 14.7°c 1028.0 hPa 100% 9.0mm
10/08:00am SW 9-11 kts 14.5°c 1028.1 hPa 100% 9.0mm
10/07:30am S 4-5 kts 15.1°c 1028.1 hPa 99% 9.0mm
10/07:00am ENE 3-6 kts 15.2°c 1028.0 hPa 99% 9.0mm
10/06:30am SSW 5-7 kts 14.3°c 1028.0 hPa 100% 9.0mm
10/06:00am W 4-7 kts 14.3°c 1027.4 hPa 100% 9.0mm
10/05:30am WNW 6-10 kts 14.6°c 1027.7 hPa 100% 9.0mm
10/05:00am SSE 6-9 kts 15.0°c 1027.3 hPa 100% 9.0mm
10/04:30am SSE 3-5 kts 14.3°c 1027.0 hPa 100% 9.0mm
10/04:00am S 9-12 kts 14.6°c 1027.2 hPa 100% 8.6mm
10/03:30am S 10-11 kts 14.8°c 1027.3 hPa 100% 7.4mm
10/03:00am SW 9-11 kts 14.2°c 1027.6 hPa 100% 7.4mm
10/02:30am SW 10-12 kts 14.1°c 1027.2 hPa 100% 7.4mm
10/02:00am W 11-13 kts 13.9°c 1027.6 hPa 100% 7.4mm
10/01:30am WNW 9-15 kts 14.4°c 1027.9 hPa 100% 7.4mm
10/01:00am S 7-9 kts 15.3°c 1028.1 hPa 98% 7.4mm
10/12:30am SSW 8-9 kts 14.4°c 1028.2 hPa 100% 7.4mm
10/12:00am SSW 9-10 kts 14.7°c 1028.2 hPa 100% 7.4mm
Time Wind Speed Temp Pressure Rel. Hum Rain
09/11:30pm SW 7-9 kts 15.0°c 1028.6 hPa 99% 7.4mm
09/11:00pm SSW 8-10 kts 15.2°c 1028.4 hPa 99% 7.4mm
09/10:30pm SSW 9-10 kts 15.0°c 1028.4 hPa 100% 7.4mm
09/10:00pm SSW 8-9 kts 15.1°c 1028.6 hPa 100% 7.4mm
09/09:30pm SSW 5-6 kts 15.4°c 1028.8 hPa 100% 7.4mm
09/09:00pm WSW 7-11 kts 14.9°c 1028.7 hPa 100% 7.4mm
09/08:30pm W 9-11 kts 14.8°c 1028.8 hPa 100% 7.4mm
09/08:00pm SE 4-5 kts 15.5°c 1028.5 hPa 100% 7.4mm
09/07:30pm ENE 7-9 kts 15.2°c 1028.7 hPa 100% 7.2mm
09/07:00pm NE 20-24 kts 15.3°c 1028.4 hPa 100% 6.6mm
09/06:52pm ENE 15-21 kts 15.9°c 1028.4 hPa 100% 6.2mm
09/06:30pm E 9-11 kts 16.0°c 1028.5 hPa 99% 6.2mm
09/06:00pm ENE 12-19 kts 16.1°c 1028.1 hPa 99% 6.2mm
09/05:30pm E 14-19 kts 15.9°c 1027.8 hPa 99% 6.2mm
09/05:00pm SE 9-13 kts 15.9°c 1027.7 hPa 100% 6.2mm
09/04:30pm S 10-13 kts 15.3°c 1027.9 hPa 100% 6.2mm
09/04:00pm E 14-17 kts 15.3°c 1028.1 hPa 100% 6.2mm
09/03:30pm SSE 10-13 kts 15.5°c 1028.2 hPa 100% 5.0mm
09/03:00pm S 11-15 kts 15.3°c 1028.2 hPa 100% 4.8mm
09/02:30pm SSE 12-16 kts 15.7°c 1028.2 hPa 100% 4.8mm
09/02:00pm SSW 12-15 kts 15.3°c 1028.2 hPa 100% 4.8mm
09/01:30pm SSE 14-19 kts 15.5°c 1028.3 hPa 100% 4.8mm
09/01:00pm SSW 10-13 kts 16.3°c 1028.3 hPa 100% 4.6mm
09/12:30pm SSW 7-10 kts 16.2°c 1028.7 hPa 99% 4.6mm
09/12:00pm ENE 8-11 kts 15.4°c 1029.5 hPa 100% 4.6mm
09/11:30am SE 15-20 kts 15.6°c 1029.5 hPa 100% 4.6mm
09/11:00am SSW 15-19 kts 16.0°c 1029.7 hPa 99% 0.0mm
09/10:30am SSW 14-19 kts 15.8°c 1030.1 hPa 99% 0.0mm
09/10:00am SSW 12-15 kts 15.4°c 1030.1 hPa 99% 0.0mm
09/09:30am SSW 12-16 kts 14.9°c 1030.2 hPa 100% 0.0mm
09/09:00am SW 12-15 kts 14.2°c 1030.2 hPa 100% 10.2mm
09/08:30am SW 11-14 kts 14.0°c 1029.7 hPa 100% 10.2mm
09/08:00am SW 12-15 kts 13.6°c 1029.4 hPa 100% 10.2mm
09/07:30am SW 13-16 kts 12.9°c 1029.0 hPa 100% 10.2mm
09/07:00am SW 11-13 kts 12.9°c 1028.8 hPa 100% 10.2mm
09/06:30am SW 10-12 kts 13.0°c 1028.5 hPa 100% 10.2mm
09/06:00am SW 12-15 kts 12.7°c 1028.3 hPa 100% 10.2mm
09/05:30am SW 13-16 kts 12.6°c 1027.9 hPa 100% 10.2mm
09/05:00am WSW 12-15 kts 12.6°c 1027.6 hPa 100% 10.2mm
09/04:30am SW 12-14 kts 12.5°c 1027.4 hPa 100% 10.2mm
09/04:00am W 12-15 kts 12.6°c 1027.5 hPa 100% 10.2mm
09/03:30am WSW 9-11 kts 13.1°c 1027.7 hPa 100% 10.0mm
09/03:00am SW 10-15 kts 12.9°c 1027.6 hPa 100% 10.0mm
09/02:30am W 9-12 kts 13.1°c 1027.5 hPa 100% 10.0mm
09/02:00am WSW 10-14 kts 13.1°c 1027.9 hPa 100% 10.0mm
09/01:30am WSW 10-12 kts 13.3°c 1028.0 hPa 100% 10.0mm
09/01:00am WSW 5-8 kts 13.7°c 1028.4 hPa 100% 9.8mm
09/12:30am S 3-5 kts 14.3°c 1028.7 hPa 100% 9.0mm
09/12:00am WSW 8-11 kts 14.2°c 1028.5 hPa 100% 7.2mm
Time Wind Speed Temp Pressure Rel. Hum Rain
08/11:30pm E 8-10 kts 15.0°c 1028.5 hPa 100% 6.4mm
08/11:00pm E 17-23 kts 15.0°c 1028.5 hPa 100% 6.4mm
08/10:30pm ENE 10-15 kts 14.5°c 1028.6 hPa 100% 6.4mm
08/10:00pm E 18-25 kts 14.9°c 1028.6 hPa 100% 6.2mm
08/09:57pm E 20-30 kts 14.9°c 1028.6 hPa 100% 6.2mm
08/09:48pm ESE 15-30 kts 15.3°c 1028.3 hPa 100% 6.2mm
08/09:30pm SSE 11-17 kts 14.4°c 1028.9 hPa 100% 6.0mm
08/09:00pm SW 12-15 kts 13.7°c 1028.8 hPa 100% 5.8mm
08/08:30pm SW 11-14 kts 13.7°c 1028.6 hPa 100% 5.4mm
08/08:00pm SW 10-13 kts 13.8°c 1028.3 hPa 100% 5.2mm
08/07:30pm SSW 12-16 kts 13.9°c 1028.2 hPa 100% 4.6mm
08/07:00pm SSW 12-15 kts 13.8°c 1027.9 hPa 100% 4.6mm
08/06:30pm SW 10-12 kts 13.8°c 1027.8 hPa 100% 4.6mm
08/06:00pm SSW 10-13 kts 14.1°c 1027.6 hPa 100% 4.6mm
08/05:30pm S 15-17 kts 14.4°c 1027.4 hPa 100% 4.6mm
08/05:00pm S 12-16 kts 14.7°c 1027.2 hPa 100% 3.6mm
08/04:30pm SSW 9-13 kts 14.3°c 1027.0 hPa 100% 1.8mm
08/04:00pm SW 12-16 kts 14.2°c 1026.8 hPa 100% 0.6mm
08/03:30pm SW 12-14 kts 14.4°c 1026.7 hPa 100% 0.2mm
08/03:00pm SW 14-17 kts 14.2°c 1026.4 hPa 100% 0.2mm
08/02:30pm SW 12-16 kts 14.2°c 1026.7 hPa 100% 0.2mm
08/02:00pm SW 12-16 kts 14.4°c 1026.7 hPa 100% 0.0mm
08/01:30pm SW 14-17 kts 14.5°c 1026.7 hPa 100% 0.0mm
08/01:00pm SW 15-20 kts 15.3°c 1027.0 hPa 99% 0.0mm
08/12:30pm SW 16-20 kts 15.6°c 1027.0 hPa 87% 0.0mm
08/12:00pm SSW 15-21 kts 15.9°c 1027.2 hPa 82% 0.0mm
08/11:30am SW 17-21 kts 16.0°c 1027.5 hPa 80% 0.0mm
08/11:00am SW 17-25 kts 15.9°c 1027.8 hPa 80% 0.0mm
08/10:30am SW 16-21 kts 15.9°c 1028.1 hPa 76% 0.0mm
08/10:00am SW 14-20 kts 15.0°c 1028.3 hPa 73% 0.0mm
08/09:30am SW 14-21 kts 14.5°c 1028.3 hPa 75% 0.0mm
08/09:00am SW 15-20 kts 13.8°c 1028.1 hPa 74% 0.2mm
08/08:30am SW 17-23 kts 13.3°c 1027.8 hPa 75% 0.2mm
08/08:00am SW 18-23 kts 12.9°c 1027.6 hPa 78% 0.2mm
08/07:30am SW 17-22 kts 12.5°c 1027.3 hPa 82% 0.2mm
08/07:00am SW 17-20 kts 12.0°c 1027.1 hPa 79% 0.2mm
08/06:30am SW 18-23 kts 12.3°c 1026.8 hPa 77% 0.2mm
08/06:00am SW 18-22 kts 12.3°c 1026.5 hPa 77% 0.2mm
08/05:30am SW 16-20 kts 12.4°c 1026.2 hPa 77% 0.2mm
08/05:00am SW 16-21 kts 12.2°c 1026.1 hPa 78% 0.2mm
08/04:30am SW 15-18 kts 11.8°c 1026.0 hPa 82% 0.2mm
08/04:00am SW 17-21 kts 12.6°c 1026.1 hPa 81% 0.2mm
08/03:30am SW 17-21 kts 12.6°c 1026.3 hPa 80% 0.2mm
08/03:00am SW 17-21 kts 12.7°c 1026.5 hPa 81% 0.2mm
08/02:30am SW 17-23 kts 12.7°c 1026.6 hPa 82% 0.2mm
08/02:00am SW 17-22 kts 12.8°c 1026.8 hPa 81% 0.2mm
08/01:30am SW 17-22 kts 12.8°c 1026.9 hPa 81% 0.2mm
08/01:00am SW 13-17 kts 12.9°c 1027.2 hPa 84% 0.2mm
08/12:30am SW 15-19 kts 13.3°c 1027.3 hPa 81% 0.2mm
08/12:00am SW 15-18 kts 13.6°c 1027.0 hPa 81% 0.2mm